QPF
0.05 0.03 0.02 0.02 0.02 0.02 0.02 0.01 0.01 0.01 0.01 0.01 0.00 0.00 0.00 0.00 0.00 0.01 0.01 0.01 0.01 0.01 0.01 0.01 0.00 0.00 0.00 0.00 0.00 0.00 0.01 0.02 0.01 0.01 0.01 0.01 0.01 0.01 0.01 0.01 0.02 0.02 0.02
0.05 0.03 0.02 0.02 0.01 0.02 0.03 0.02 0.02 0.01 0.01 0.01 0.01 0.00 0.00 0.00 0.00 0.00 0.01 0.02 0.02 0.02 0.02 0.01 0.01 0.01 0.00 0.00 0.00 0.01 0.02 0.02 0.02 0.01 0.01 0.01 0.01 0.01 0.01 0.02 0.01 0.01 0.02
0.04 0.03 0.03 0.02 0.01 0.01 0.02 0.03 0.01 0.01 0.01 0.01 0.01 0.01 0.00 0.00 0.01 0.01 0.01 0.01 0.02 0.02 0.02 0.01 0.01 0.01 0.01 0.01 0.01 0.01 0.02 0.02 0.02 0.02 0.01 0.00 0.01 0.01 0.01 0.01 0.02 0.02 0.01
0.03 0.04 0.04 0.03 0.02 0.01 0.02 0.02 0.01 0.01 0.01 0.01 0.01 0.01 0.01 0.00 0.00 0.01 0.01 0.01 0.01 0.02 0.02 0.01 0.01 0.01 0.01 0.01 0.01 0.01 0.02 0.02 0.02 0.02 0.01 0.01 0.01 0.01 0.01 0.01 0.01 0.03 0.04
0.03 0.03 0.05 0.04 0.03 0.03 0.02 0.02 0.02 0.01 0.01 0.01 0.02 0.02 0.02 0.01 0.01 0.01 0.01 0.01 0.01 0.01 0.01 0.01 0.02 0.02 0.01 0.01 0.01 0.01 0.02 0.02 0.02 0.02 0.01 0.01 0.01 0.01 0.01 0.01 0.01 0.02 0.04
0.01 0.02 0.02 0.03 0.02 0.02 0.03 0.02 0.02 0.01 0.01 0.01 0.02 0.02 0.02 0.01 0.01 0.01 0.02 0.01 0.01 0.01 0.01 0.01 0.01 0.01 0.01 0.01 0.02 0.02 0.03 0.02 0.02 0.02 0.01 0.01 0.01 0.01 0.01 0.02 0.01 0.02 0.03
0.01 0.02 0.02 0.02 0.02 0.02 0.01 0.02 0.01 0.01 0.01 0.01 0.02 0.02 0.02 0.02 0.02 0.02 0.02 0.02 0.01 0.01 0.01 0.01 0.01 0.01 0.01 0.01 0.01 0.02 0.02 0.03 0.03 0.03 0.02 0.01 0.01 0.01 0.02 0.02 0.01 0.01 0.04
0.01 0.02 0.02 0.02 0.02 0.02 0.01 0.01 0.01 0.01 0.01 0.01 0.02 0.02 0.02 0.02 0.02 0.02 0.02 0.01 0.01 0.01 0.01 0.01 0.01 0.01 0.01 0.01 0.01 0.01 0.01 0.01 0.03 0.03 0.02 0.02 0.02 0.02 0.02 0.02 0.02 0.01 0.02
0.01 0.01 0.01 0.02 0.03 0.03 0.02 0.01 0.01 0.01 0.01 0.01 0.01 0.01 0.02 0.02 0.02 0.03 0.03 0.01 0.01 0.01 0.01 0.01 0.02 0.01 0.01 0.02 0.01 0.01 0.01 0.01 0.02 0.02 0.02 0.03 0.04 0.04 0.03 0.02 0.02 0.01 0.01
0.01 0.00 0.01 0.01 0.03 0.03 0.03 0.03 0.01 0.01 0.02 0.01 0.01 0.01 0.02 0.02 0.02 0.03 0.03 0.02 0.02 0.02 0.01 0.01 0.01 0.01 0.01 0.02 0.01 0.01 0.01 0.01 0.01 0.02 0.02 0.03 0.03 0.04 0.04 0.03 0.02 0.02 0.02
0.01 0.01 0.00 0.01 0.02 0.04 0.03 0.02 0.02 0.02 0.02 0.01 0.01 0.01 0.01 0.02 0.02 0.02 0.02 0.01 0.01 0.01 0.01 0.01 0.01 0.01 0.01 0.02 0.02 0.02 0.01 0.01 0.01 0.02 0.02 0.02 0.02 0.02 0.02 0.03 0.03 0.03 0.03
0.01 0.01 0.01 0.00 0.01 0.02 0.03 0.02 0.02 0.03 0.02 0.02 0.01 0.01 0.01 0.01 0.01 0.02 0.02 0.01 0.01 0.01 0.01 0.01 0.02 0.02 0.02 0.02 0.03 0.02 0.02 0.02 0.01 0.01 0.01 0.01 0.01 0.02 0.02 0.03 0.04 0.05 0.05
0.00 0.00 0.01 0.01 0.01 0.01 0.02 0.02 0.02 0.02 0.03 0.03 0.02 0.01 0.01 0.01 0.01 0.01 0.02 0.02 0.02 0.01 0.01 0.01 0.02 0.02 0.02 0.02 0.03 0.03 0.03 0.02 0.01 0.01 0.01 0.01 0.01 0.01 0.02 0.02 0.02 0.03 0.04
0.00 0.00 0.00 0.01 0.01 0.01 0.01 0.02 0.03 0.03 0.03 0.03 0.03 0.02 0.01 0.01 0.01 0.01 0.01 0.01 0.01 0.01 0.01 0.01 0.01 0.02 0.02 0.01 0.02 0.04 0.02 0.02 0.02 0.02 0.01 0.01 0.01 0.01 0.01 0.01 0.01 0.01 0.01
0.00 0.00 0.00 0.00 0.00 0.01 0.01 0.01 0.02 0.03 0.03 0.03 0.02 0.02 0.02 0.01 0.01 0.02 0.01 0.02 0.02 0.02 0.01 0.01 0.01 0.01 0.01 0.01 0.01 0.02 0.03 0.02 0.02 0.02 0.02 0.02 0.01 0.01 0.01 0.01 0.02 0.02 0.02
0.00 0.00 0.00 0.00 0.00 0.00 0.01 0.01 0.01 0.01 0.02 0.02 0.01 0.01 0.02 0.02 0.02 0.02 0.01 0.02 0.02 0.02 0.03 0.02 0.01 0.01 0.01 0.01 0.01 0.02 0.03 0.03 0.02 0.03 0.03 0.02 0.02 0.02 0.03 0.03 0.03 0.03 0.03
0.01 0.01 0.01 0.01 0.01 0.01 0.01 0.01 0.01 0.01 0.01 0.01 0.01 0.01 0.01 0.02 0.02 0.02 0.03 0.03 0.02 0.02 0.02 0.03 0.03 0.03 0.02 0.02 0.02 0.02 0.03 0.03 0.03 0.03 0.03 0.03 0.03 0.03 0.03 0.04 0.04 0.03 0.03
0.02 0.02 0.02 0.03 0.02 0.02 0.02 0.02 0.01 0.01 0.01 0.00 0.01 0.01 0.02 0.02 0.02 0.03 0.03 0.03 0.03 0.03 0.02 0.02 0.03 0.04 0.04 0.04 0.03 0.03 0.03 0.03 0.03 0.03 0.03 0.03 0.03 0.03 0.03 0.04 0.03 0.03 0.03
0.04 0.03 0.03 0.02 0.02 0.01 0.01 0.01 0.01 0.01 0.00 0.00 0.01 0.01 0.01 0.02 0.03 0.04 0.04 0.03 0.03 0.02 0.03 0.03 0.03 0.03 0.04 0.04 0.04 0.05 0.04 0.04 0.04 0.03 0.03 0.03 0.03 0.03 0.04 0.04 0.03 0.04 0.03
0.05 0.05 0.03 0.02 0.01 0.01 0.01 0.01 0.01 0.01 0.00 0.00 0.00 0.01 0.01 0.01 0.02 0.03 0.03 0.03 0.02 0.02 0.02 0.03 0.03 0.02 0.02 0.03 0.03 0.03 0.04 0.04 0.04 0.04 0.04 0.03 0.03 0.04 0.04 0.04 0.04 0.04 0.04
0.03 0.04 0.03 0.02 0.01 0.00 0.00 0.00 0.00 0.01 0.01 0.01 0.01 0.01 0.01 0.01 0.01 0.01 0.01 0.02 0.02 0.02 0.02 0.02 0.02 0.02 0.02 0.02 0.02 0.03 0.03 0.03 0.03 0.04 0.04 0.04 0.04 0.04 0.05 0.06 0.05 0.05 0.05
0.02 0.02 0.01 0.01 0.00 0.00 0.00 0.00 0.00 0.00 0.01 0.01 0.01 0.01 0.01 0.01 0.01 0.01 0.01 0.01 0.02 0.02 0.02 0.02 0.02 0.02 0.02 0.03 0.03 0.03 0.03 0.03 0.04 0.04 0.04 0.05 0.05 0.05 0.05 0.07 0.07 0.06 0.06
0.01 0.00 0.00 0.00 0.00 0.00 0.00 0.00 0.00 0.00 0.00 0.00 0.00 0.01 0.01 0.01 0.01 0.01 0.01 0.01 0.01 0.02 0.03 0.03 0.03 0.03 0.03 0.03 0.03 0.03 0.02 0.02 0.02 0.03 0.04 0.05 0.05 0.05 0.04 0.05 0.06 0.06 0.06
0.01 0.00 0.00 0.00 0.00 0.00 0.00 0.00 0.00 0.00 0.00 0.00 0.01 0.01 0.01 0.01 0.01 0.00 0.00 0.01 0.01 0.01 0.01 0.02 0.03 0.03 0.04 0.04 0.03 0.03 0.03 0.02 0.02 0.03 0.03 0.05 0.05 0.05 0.04 0.04 0.05 0.06 0.06
0.01 0.01 0.01 0.01 0.01 0.01 0.00 0.00 0.00 0.00 0.00 0.00 0.01 0.01 0.01 0.01 0.01 0.00 0.00 0.01 0.01 0.01 0.01 0.01 0.02 0.02 0.03 0.03 0.03 0.04 0.05 0.06 0.05 0.04 0.04 0.04 0.05 0.06 0.05 0.04 0.04 0.05 0.05
0.00 0.00 0.00 0.00 0.01 0.01 0.01 0.01 0.01 0.01 0.01 0.01 0.01 0.01 0.01 0.01 0.01 0.01 0.01 0.01 0.01 0.01 0.01 0.01 0.02 0.02 0.02 0.03 0.03 0.04 0.05 0.06 0.07 0.07 0.06 0.06 0.06 0.06 0.06 0.05 0.05 0.05 0.05
MSLP
1016.39 1016.71 1017.03 1017.32 1017.56 1017.73 1017.84 1017.90 1017.94 1017.98 1018.04 1018.13 1018.24 1018.37 1018.50 1018.63 1018.76 1018.87 1018.99 1019.11 1019.26 1019.44 1019.64 1019.86 1020.09 1020.32 1020.53 1020.71 1020.87 1021.02 1021.16 1021.30 1021.46 1021.62 1021.79 1021.96 1022.10 1022.20 1022.26 1022.27 1022.24 1022.17 1022.10
1016.01 1016.34 1016.66 1016.97 1017.21 1017.40 1017.53 1017.61 1017.66 1017.70 1017.75 1017.83 1017.93 1018.05 1018.19 1018.34 1018.49 1018.65 1018.81 1019.00 1019.20 1019.42 1019.65 1019.89 1020.12 1020.34 1020.54 1020.71 1020.88 1021.04 1021.21 1021.40 1021.60 1021.82 1022.04 1022.25 1022.42 1022.53 1022.59 1022.58 1022.52 1022.43 1022.32
1015.61 1015.96 1016.31 1016.63 1016.90 1017.11 1017.25 1017.34 1017.40 1017.44 1017.49 1017.55 1017.63 1017.74 1017.87 1018.02 1018.20 1018.39 1018.61 1018.85 1019.11 1019.38 1019.65 1019.91 1020.15 1020.38 1020.58 1020.76 1020.93 1021.11 1021.31 1021.53 1021.77 1022.03 1022.28 1022.51 1022.70 1022.82 1022.87 1022.85 1022.77 1022.65 1022.51
1015.24 1015.64 1016.02 1016.37 1016.66 1016.89 1017.05 1017.16 1017.23 1017.27 1017.30 1017.35 1017.41 1017.49 1017.61 1017.76 1017.94 1018.17 1018.42 1018.70 1019.01 1019.32 1019.62 1019.92 1020.18 1020.42 1020.63 1020.81 1021.00 1021.19 1021.40 1021.64 1021.90 1022.18 1022.45 1022.69 1022.88 1023.00 1023.04 1023.01 1022.92 1022.79 1022.64
1014.94 1015.39 1015.81 1016.19 1016.52 1016.78 1016.97 1017.10 1017.18 1017.22 1017.25 1017.28 1017.32 1017.38 1017.48 1017.61 1017.79 1018.01 1018.28 1018.58 1018.91 1019.25 1019.58 1019.90 1020.18 1020.43 1020.64 1020.83 1021.02 1021.21 1021.43 1021.67 1021.93 1022.21 1022.48 1022.71 1022.90 1023.02 1023.06 1023.04 1022.95 1022.83 1022.69
1014.74 1015.25 1015.71 1016.13 1016.49 1016.77 1016.99 1017.15 1017.25 1017.31 1017.34 1017.37 1017.39 1017.43 1017.50 1017.60 1017.76 1017.96 1018.21 1018.51 1018.84 1019.18 1019.52 1019.84 1020.13 1020.38 1020.60 1020.79 1020.97 1021.16 1021.36 1021.59 1021.83 1022.09 1022.34 1022.57 1022.75 1022.87 1022.92 1022.92 1022.86 1022.76 1022.65
1014.66 1015.21 1015.71 1016.16 1016.54 1016.86 1017.10 1017.29 1017.42 1017.50 1017.56 1017.58 1017.61 1017.63 1017.67 1017.74 1017.86 1018.02 1018.23 1018.50 1018.79 1019.11 1019.44 1019.74 1020.02 1020.27 1020.48 1020.67 1020.84 1021.01 1021.19 1021.39 1021.61 1021.84 1022.06 1022.27 1022.44 1022.57 1022.64 1022.67 1022.65 1022.61 1022.54
1014.66 1015.25 1015.78 1016.25 1016.65 1016.98 1017.26 1017.47 1017.64 1017.76 1017.84 1017.89 1017.91 1017.93 1017.95 1017.99 1018.06 1018.17 1018.33 1018.54 1018.79 1019.06 1019.35 1019.63 1019.89 1020.12 1020.32 1020.49 1020.65 1020.80 1020.96 1021.12 1021.31 1021.50 1021.70 1021.88 1022.04 1022.18 1022.28 1022.35 1022.38 1022.40 1022.40
1014.72 1015.32 1015.86 1016.34 1016.74 1017.09 1017.39 1017.64 1017.84 1018.00 1018.12 1018.20 1018.25 1018.27 1018.28 1018.29 1018.32 1018.38 1018.48 1018.63 1018.82 1019.04 1019.27 1019.51 1019.74 1019.95 1020.14 1020.30 1020.44 1020.57 1020.70 1020.84 1020.99 1021.15 1021.31 1021.48 1021.63 1021.78 1021.90 1022.01 1022.10 1022.18 1022.24
1014.78 1015.39 1015.92 1016.39 1016.79 1017.15 1017.46 1017.74 1017.98 1018.18 1018.35 1018.47 1018.54 1018.58 1018.60 1018.59 1018.59 1018.61 1018.66 1018.74 1018.87 1019.04 1019.22 1019.42 1019.63 1019.81 1019.98 1020.13 1020.26 1020.38 1020.49 1020.60 1020.72 1020.85 1020.98 1021.13 1021.27 1021.42 1021.56 1021.70 1021.83 1021.95 1022.06
1014.82 1015.41 1015.93 1016.38 1016.78 1017.14 1017.46 1017.76 1018.04 1018.28 1018.49 1018.65 1018.76 1018.82 1018.84 1018.84 1018.82 1018.81 1018.82 1018.86 1018.94 1019.06 1019.21 1019.38 1019.55 1019.72 1019.88 1020.02 1020.14 1020.25 1020.34 1020.43 1020.53 1020.62 1020.73 1020.85 1020.98 1021.12 1021.27 1021.42 1021.57 1021.72 1021.86
1014.80 1015.37 1015.87 1016.31 1016.70 1017.06 1017.40 1017.72 1018.02 1018.29 1018.53 1018.73 1018.87 1018.95 1018.99 1018.99 1018.97 1018.95 1018.94 1018.96 1019.01 1019.10 1019.22 1019.37 1019.52 1019.68 1019.83 1019.96 1020.08 1020.18 1020.26 1020.33 1020.40 1020.47 1020.55 1020.64 1020.75 1020.86 1021.00 1021.14 1021.29 1021.44 1021.58
1014.72 1015.27 1015.76 1016.19 1016.58 1016.95 1017.29 1017.63 1017.94 1018.23 1018.49 1018.71 1018.86 1018.97 1019.02 1019.03 1019.02 1019.00 1018.99 1019.00 1019.04 1019.12 1019.23 1019.36 1019.51 1019.66 1019.80 1019.93 1020.03 1020.12 1020.18 1020.24 1020.28 1020.33 1020.38 1020.44 1020.51 1020.60 1020.70 1020.82 1020.95 1021.07 1021.19
1014.58 1015.13 1015.62 1016.06 1016.45 1016.82 1017.18 1017.52 1017.83 1018.13 1018.38 1018.60 1018.76 1018.86 1018.92 1018.94 1018.94 1018.93 1018.93 1018.95 1019.00 1019.08 1019.19 1019.32 1019.46 1019.61 1019.74 1019.85 1019.94 1020.01 1020.06 1020.09 1020.11 1020.13 1020.14 1020.17 1020.21 1020.26 1020.33 1020.41 1020.50 1020.59 1020.67
1014.38 1014.94 1015.44 1015.90 1016.32 1016.70 1017.06 1017.40 1017.70 1017.98 1018.21 1018.40 1018.54 1018.64 1018.69 1018.72 1018.72 1018.73 1018.74 1018.78 1018.85 1018.94 1019.05 1019.19 1019.32 1019.45 1019.57 1019.67 1019.74 1019.78 1019.80 1019.81 1019.80 1019.79 1019.78 1019.77 1019.78 1019.80 1019.83 1019.87 1019.92 1019.97 1020.02
1014.11 1014.70 1015.23 1015.71 1016.16 1016.56 1016.92 1017.24 1017.53 1017.77 1017.96 1018.11 1018.21 1018.28 1018.32 1018.34 1018.35 1018.37 1018.40 1018.46 1018.55 1018.65 1018.78 1018.90 1019.03 1019.15 1019.24 1019.30 1019.34 1019.36 1019.35 1019.32 1019.29 1019.25 1019.22 1019.19 1019.18 1019.18 1019.18 1019.19 1019.21 1019.23 1019.24
1013.77 1014.38 1014.95 1015.47 1015.94 1016.36 1016.72 1017.02 1017.27 1017.46 1017.61 1017.70 1017.76 1017.79 1017.80 1017.81 1017.82 1017.86 1017.91 1017.99 1018.09 1018.20 1018.33 1018.45 1018.56 1018.64 1018.70 1018.73 1018.73 1018.71 1018.67 1018.62 1018.56 1018.51 1018.46 1018.43 1018.41 1018.39 1018.39 1018.39 1018.39 1018.39 1018.39
1013.35 1013.98 1014.58 1015.13 1015.62 1016.04 1016.39 1016.67 1016.88 1017.03 1017.11 1017.16 1017.17 1017.16 1017.15 1017.14 1017.16 1017.20 1017.26 1017.36 1017.46 1017.58 1017.70 1017.80 1017.88 1017.94 1017.96 1017.94 1017.91 1017.85 1017.78 1017.70 1017.63 1017.57 1017.52 1017.49 1017.48 1017.47 1017.48 1017.49 1017.50 1017.50 1017.51
1012.84 1013.49 1014.11 1014.67 1015.17 1015.58 1015.92 1016.17 1016.34 1016.43 1016.47 1016.47 1016.44 1016.40 1016.37 1016.36 1016.37 1016.42 1016.49 1016.58 1016.69 1016.80 1016.90 1016.98 1017.02 1017.03 1017.01 1016.96 1016.88 1016.78 1016.69 1016.60 1016.52 1016.46 1016.43 1016.42 1016.43 1016.45 1016.48 1016.52 1016.55 1016.58 1016.61
1012.26 1012.91 1013.53 1014.08 1014.57 1014.97 1015.27 1015.49 1015.62 1015.68 1015.68 1015.65 1015.59 1015.53 1015.49 1015.47 1015.49 1015.53 1015.60 1015.70 1015.79 1015.88 1015.94 1015.98 1015.99 1015.96 1015.89 1015.79 1015.68 1015.56 1015.45 1015.36 1015.28 1015.24 1015.22 1015.24 1015.28 1015.34 1015.41 1015.48 1015.55 1015.62 1015.69
1011.65 1012.28 1012.87 1013.40 1013.85 1014.21 1014.48 1014.67 1014.77 1014.80 1014.77 1014.72 1014.65 1014.59 1014.54 1014.52 1014.54 1014.57 1014.63 1014.70 1014.77 1014.83 1014.85 1014.85 1014.81 1014.73 1014.62 1014.49 1014.35 1014.22 1014.10 1014.01 1013.95 1013.93 1013.94 1013.98 1014.06 1014.16 1014.26 1014.38 1014.50 1014.62 1014.73
1011.08 1011.65 1012.18 1012.66 1013.06 1013.37 1013.60 1013.74 1013.81 1013.82 1013.79 1013.73 1013.66 1013.59 1013.55 1013.53 1013.53 1013.55 1013.59 1013.62 1013.65 1013.66 1013.63 1013.58 1013.49 1013.37 1013.23 1013.07 1012.92 1012.79 1012.67 1012.60 1012.55 1012.55 1012.59 1012.67 1012.78 1012.90 1013.05 1013.20 1013.36 1013.53 1013.69
1010.58 1011.08 1011.53 1011.93 1012.25 1012.50 1012.68 1012.78 1012.82 1012.81 1012.77 1012.70 1012.63 1012.57 1012.52 1012.49 1012.47 1012.46 1012.46 1012.45 1012.42 1012.37 1012.29 1012.18 1012.04 1011.89 1011.73 1011.57 1011.42 1011.29 1011.19 1011.14 1011.12 1011.14 1011.21 1011.31 1011.44 1011.59 1011.76 1011.94 1012.13 1012.33 1012.54
1010.20 1010.59 1010.95 1011.25 1011.49 1011.67 1011.78 1011.83 1011.84 1011.80 1011.74 1011.67 1011.59 1011.52 1011.45 1011.39 1011.34 1011.29 1011.23 1011.15 1011.06 1010.95 1010.81 1010.66 1010.49 1010.31 1010.14 1009.99 1009.85 1009.75 1009.69 1009.66 1009.67 1009.72 1009.80 1009.91 1010.05 1010.22 1010.40 1010.60 1010.81 1011.04 1011.29
1009.92 1010.21 1010.45 1010.65 1010.79 1010.88 1010.92 1010.92 1010.88 1010.81 1010.72 1010.62 1010.52 1010.42 1010.32 1010.22 1010.11 1010.00 1009.87 1009.73 1009.57 1009.40 1009.21 1009.02 1008.83 1008.66 1008.50 1008.37 1008.27 1008.21 1008.18 1008.18 1008.22 1008.29 1008.39 1008.51 1008.65 1008.81 1008.99 1009.19 1009.42 1009.67 1009.94
1009.71 1009.89 1010.02 1010.11 1010.15 1010.15 1010.11 1010.04 1009.94 1009.82 1009.69 1009.55 1009.41 1009.26 1009.10 1008.94 1008.76 1008.58 1008.38 1008.17 1007.95 1007.73 1007.51 1007.30 1007.12 1006.96 1006.83 1006.74 1006.69 1006.68 1006.69 1006.74 1006.80 1006.89 1006.99 1007.10 1007.23 1007.38 1007.55 1007.75 1007.98 1008.24 1008.53
Thickness
5683 5680 5677 5674 5672 5670 5668 5665 5663 5661 5658 5656 5654 5651 5649 5648 5646 5645 5643 5641 5639 5637 5636 5636 5634 5634 5633 5632 5632 5631 5630 5630 5628 5630 5632 5633 5634 5635 5635 5636 5636 5637 5637
5679 5676 5673 5670 5667 5665 5663 5660 5659 5656 5654 5652 5649 5647 5645 5643 5642 5640 5638 5636 5634 5632 5631 5630 5629 5629 5628 5627 5627 5626 5626 5626 5625 5625 5626 5627 5628 5629 5629 5630 5631 5631 5632
5674 5670 5667 5664 5662 5660 5658 5656 5654 5652 5649 5647 5644 5642 5640 5639 5637 5635 5633 5631 5629 5628 5626 5625 5624 5623 5622 5622 5622 5621 5621 5622 5620 5620 5620 5621 5621 5622 5622 5623 5624 5625 5626
5669 5665 5661 5659 5657 5655 5653 5651 5648 5647 5644 5642 5639 5637 5635 5634 5632 5630 5628 5625 5623 5622 5621 5620 5619 5619 5618 5617 5617 5616 5616 5615 5614 5614 5614 5614 5614 5615 5615 5615 5616 5618 5619
5662 5659 5656 5653 5651 5649 5647 5645 5643 5641 5639 5637 5634 5632 5630 5629 5627 5625 5623 5621 5618 5617 5616 5615 5614 5614 5614 5613 5613 5611 5611 5609 5608 5608 5608 5608 5608 5608 5609 5609 5609 5610 5611
5656 5653 5650 5647 5645 5643 5641 5639 5637 5635 5632 5630 5628 5627 5625 5624 5623 5621 5619 5616 5613 5612 5610 5609 5609 5608 5609 5608 5608 5608 5607 5605 5603 5602 5603 5603 5605 5604 5604 5603 5602 5601 5604
5650 5647 5644 5642 5639 5637 5635 5633 5631 5628 5626 5624 5622 5620 5619 5618 5618 5616 5614 5610 5608 5606 5605 5603 5603 5603 5602 5601 5602 5602 5601 5601 5601 5600 5599 5600 5601 5601 5600 5598 5597 5596 5598
5644 5641 5638 5636 5633 5630 5628 5626 5624 5622 5620 5618 5616 5614 5612 5612 5612 5610 5608 5604 5601 5599 5598 5597 5596 5596 5596 5595 5594 5594 5594 5594 5595 5595 5595 5596 5597 5597 5596 5595 5593 5591 5591
5638 5636 5633 5630 5627 5625 5622 5620 5618 5616 5614 5612 5610 5607 5606 5605 5605 5603 5601 5597 5594 5593 5592 5591 5591 5590 5591 5590 5588 5586 5586 5587 5588 5589 5590 5590 5590 5590 5589 5587 5585 5583 5583
5633 5630 5628 5625 5622 5619 5616 5614 5612 5610 5608 5605 5603 5601 5599 5598 5597 5596 5593 5590 5587 5586 5585 5584 5584 5584 5584 5583 5581 5579 5578 5579 5580 5580 5581 5582 5582 5581 5581 5580 5578 5576 5575
5628 5624 5621 5618 5616 5613 5610 5607 5605 5603 5600 5598 5596 5593 5592 5591 5590 5588 5586 5583 5581 5579 5577 5576 5576 5577 5576 5575 5574 5573 5573 5573 5572 5572 5572 5572 5573 5572 5572 5572 5571 5570 5568
5621 5617 5614 5612 5610 5607 5603 5600 5598 5595 5593 5590 5587 5585 5584 5582 5581 5580 5578 5576 5574 5571 5570 5569 5569 5569 5568 5567 5565 5565 5565 5564 5563 5562 5562 5562 5563 5563 5563 5563 5563 5562 5562
5612 5609 5607 5604 5602 5599 5596 5593 5589 5587 5585 5582 5580 5578 5576 5574 5572 5572 5570 5568 5566 5564 5562 5562 5561 5560 5558 5557 5556 5556 5555 5554 5553 5552 5552 5553 5553 5554 5554 5554 5554 5554 5554
5605 5602 5599 5596 5593 5590 5588 5586 5583 5580 5578 5575 5573 5570 5568 5565 5564 5563 5561 5559 5557 5556 5554 5553 5552 5549 5548 5547 5546 5545 5544 5544 5544 5544 5544 5544 5544 5543 5543 5544 5544 5544 5544
5596 5593 5591 5588 5585 5582 5579 5577 5576 5574 5573 5570 5567 5564 5561 5558 5558 5556 5553 5551 5549 5547 5545 5543 5541 5539 5537 5536 5535 5534 5534 5533 5534 5535 5535 5534 5534 5534 5534 5534 5534 5533 5533
5588 5585 5582 5579 5577 5574 5571 5568 5567 5566 5565 5563 5560 5557 5555 5553 5551 5548 5546 5544 5542 5540 5537 5534 5532 5530 5528 5527 5525 5525 5524 5524 5525 5525 5525 5525 5525 5525 5524 5524 5524 5524 5525
5581 5578 5575 5572 5569 5565 5563 5560 5557 5557 5555 5553 5551 5549 5547 5545 5543 5540 5538 5535 5533 5531 5527 5525 5523 5521 5520 5518 5516 5516 5515 5515 5515 5515 5515 5516 5516 5516 5515 5515 5515 5515 5515
5573 5571 5568 5564 5561 5557 5555 5552 5550 5547 5544 5542 5541 5539 5538 5536 5534 5532 5529 5526 5522 5520 5517 5516 5514 5513 5511 5510 5509 5508 5507 5506 5506 5506 5506 5506 5506 5507 5506 5506 5506 5506 5507
5564 5561 5559 5555 5552 5549 5546 5543 5540 5538 5535 5533 5531 5530 5529 5527 5524 5522 5519 5516 5513 5510 5508 5507 5505 5504 5503 5502 5501 5500 5499 5498 5497 5497 5497 5497 5497 5498 5498 5499 5498 5499 5499
5555 5554 5551 5547 5543 5540 5537 5534 5531 5528 5525 5523 5522 5520 5518 5516 5513 5511 5508 5506 5504 5502 5500 5498 5497 5496 5495 5494 5493 5492 5491 5490 5490 5489 5489 5489 5489 5489 5489 5490 5490 5490 5491
5546 5544 5543 5538 5534 5531 5528 5525 5523 5520 5517 5514 5513 5511 5510 5507 5504 5501 5499 5497 5495 5493 5492 5490 5489 5488 5487 5485 5485 5484 5483 5483 5482 5481 5481 5481 5481 5480 5481 5481 5482 5482 5482
5537 5534 5532 5528 5525 5522 5519 5517 5515 5512 5509 5507 5504 5502 5501 5498 5495 5493 5491 5489 5487 5485 5483 5481 5480 5480 5479 5477 5476 5476 5475 5475 5475 5474 5474 5474 5473 5473 5473 5473 5473 5473 5473
5527 5524 5521 5518 5516 5514 5510 5508 5506 5503 5501 5499 5496 5494 5492 5489 5487 5486 5484 5482 5479 5477 5475 5473 5472 5471 5470 5469 5468 5467 5467 5467 5466 5466 5466 5466 5465 5465 5465 5465 5465 5465 5466
5517 5514 5512 5509 5506 5504 5502 5500 5498 5495 5493 5491 5489 5487 5484 5482 5480 5478 5476 5474 5471 5469 5467 5465 5464 5463 5462 5461 5460 5460 5460 5459 5459 5459 5459 5458 5457 5457 5456 5456 5456 5457 5458
5507 5505 5502 5500 5498 5495 5493 5491 5490 5488 5486 5484 5481 5479 5476 5474 5472 5470 5468 5466 5464 5462 5460 5458 5456 5455 5454 5453 5452 5452 5451 5451 5451 5451 5450 5449 5449 5448 5448 5448 5448 5448 5448
5498 5496 5493 5491 5489 5487 5485 5484 5482 5480 5478 5476 5474 5472 5469 5467 5465 5463 5461 5458 5456 5454 5452 5450 5448 5447 5445 5444 5443 5443 5442 5442 5442 5442 5441 5440 5439 5439 5438 5438 5438 5439 5439